Weather History for KLOR - December, 2012

Change the Weather History Date:

Monday, December 3, 2012

  Actual Average (KDHN) Record (KDHN)
Temperature  
Mean Temperature 62 °F 54 °F  
Max Temperature 77 °F 66 °F 80 °F (1955)
Min Temperature 48 °F 42 °F 27 °F (1960)
Degree Days  
Heating Degree Days 2 12  
Month to date heating degree days 34  
Since 1 July heating degree days 311  
Growing Degree Days 12 (Base 50)    
Moisture  
Dew Point 51 °F    
Average Humidity 75    
Maximum Humidity 93    
Minimum Humidity 36    
Precipitation  
Precipitation 0.00 in 0.19 in 3.87 in (1941)
Month to date precipitation 0.58  
Year to date precipitation 50.16  
Sea Level Pressure  
Sea Level Pressure 30.24 in    
Wind  
Wind Speed 1 mph (South)    
Max Wind Speed 10 mph    
Max Gust Speed -    
Visibility 10 miles    
Events      
T = Trace of Precipitation, MM = Missing Value Source: NWS Daily Summary

Daily Weather History Graph

Daily Weather History Graph

Search for Another Location

Airport or City:

Trip Planner

Search our weather history database for the weather conditions in past years. The results will help you decide how hot, cold, wet, or windy it might be!

Date:

Astronomy

Dec. 03, 2012 Rise Set
Actual Time 6:26 AM CST 4:39 PM CST
Civil Twilight 5:59 AM CST 5:06 PM CST
Nautical Twilight 5:29 AM CST 5:36 PM CST
Astronomical Twilight 5:00 AM CST 6:05 PM CST
Moon 9:15 PM CST (12/3) 9:57 AM CST (12/3)
Length of Visible Light 11h 06m
Length of Day
10h 13m
Waning Gibbous, 78% of the Moon is Illuminated
Dec 3
Waning Gibbous
Dec 6
Last Quarter
Dec 13
New
Dec 19
First Quarter
Dec 28
Full

Hourly Weather History & Observations

Time (CST) Temp. Dew Point Humidity Pressure Visibility Wind Dir Wind Speed Gust Speed Precip Events Conditions
12:53 AM 51.1 °F 48.9 °F 92% 30.25 in 8.0 mi Calm Calm - N/A   Clear
1:53 AM 50.0 °F 48.0 °F 93% 30.25 in 9.0 mi Calm Calm - N/A   Clear
2:53 AM 50.0 °F 46.9 °F 89% 30.25 in 8.0 mi Calm Calm - N/A   Partly Cloudy
3:53 AM 50.0 °F 48.0 °F 93% 30.25 in 10.0 mi Calm Calm - N/A   Mostly Cloudy
4:53 AM 48.9 °F 46.9 °F 93% 30.25 in 8.0 mi Calm Calm - N/A   Mostly Cloudy
5:53 AM 51.1 °F 48.9 °F 92% 30.26 in 10.0 mi Calm Calm - N/A   Overcast
6:53 AM 52.0 °F 50.0 °F 93% 30.28 in 9.0 mi Calm Calm - N/A   Overcast
7:53 AM 57.9 °F 55.0 °F 90% 30.29 in 10.0 mi Calm Calm - N/A   Mostly Cloudy
8:53 AM 62.1 °F 55.9 °F 80% 30.30 in 10.0 mi Calm Calm - N/A   Partly Cloudy
9:53 AM 71.1 °F 57.9 °F 63% 30.29 in 10.0 mi SE 5.8 mph - N/A   Clear
10:53 AM 75.0 °F 57.9 °F 55% 30.27 in 10.0 mi SE 6.9 mph - N/A   Scattered Clouds
11:53 AM 75.9 °F 51.1 °F 42% 30.24 in 10.0 mi SW 6.9 mph - N/A   Mostly Cloudy
12:53 PM 77.0 °F 48.9 °F 37% 30.22 in 10.0 mi SSW 10.4 mph - N/A   Clear
1:53 PM 75.0 °F 48.9 °F 40% 30.20 in 10.0 mi South 5.8 mph - N/A   Partly Cloudy
2:53 PM 77.0 °F 48.0 °F 36% 30.20 in 10.0 mi SSW 8.1 mph - N/A   Partly Cloudy
3:53 PM 73.9 °F 52.0 °F 46% 30.20 in 10.0 mi South 3.5 mph - N/A   Partly Cloudy
4:53 PM 66.0 °F 53.1 °F 63% 30.21 in 10.0 mi Calm Calm - N/A   Partly Cloudy
5:53 PM 64.9 °F 55.0 °F 70% 30.22 in 10.0 mi Calm Calm - N/A   Overcast
6:53 PM 61.0 °F 53.1 °F 75% 30.23 in 10.0 mi Calm Calm - N/A   Clear
7:53 PM 57.9 °F 54.0 °F 87% 30.22 in 10.0 mi Calm Calm - N/A   Clear
8:53 PM 55.0 °F 52.0 °F 89% 30.23 in 10.0 mi Calm Calm - N/A   Clear
9:53 PM 53.1 °F 51.1 °F 93% 30.24 in 10.0 mi Calm Calm - N/A   Clear
10:53 PM 52.0 °F 50.0 °F 93% 30.24 in 10.0 mi Calm Calm - N/A   Clear
11:53 PM 50.0 °F 48.0 °F 93% 30.23 in 9.0 mi Calm Calm - N/A   Clear